Location: Bailey Volunteer Fire Department
(33.4359°N, 96.1680°W)
Time: 17:56:01
(UTC+00:00)

SL-08 ROCKET BODY - Pass Details

Date: 13 December 2025
Orbit: 896 x 961 km, 82.9° (Epoch: 13 January)

Event Time Altitude Azimuth Distance (km) Brightness Sun altitude
Rises 12:10:29 0° 191° (SSW) 3,509 7.5 -14.2°
Reaches altitude 10° 12:12:57 10° 194° (SSW) 2,567 6.8 -13.7°
Maximum altitude 12:18:44 68° 277° (W) 962 4.3 -12.6°
Drops below altitude 10° 12:24:33 10° 0° (N) 2,574 6.5 -11.4°
Sets 12:27:02 0° 3° (N) 3,521 7.2 -11.0°
